Regional Weather Roundup
Issued by NWS Wakefield, VA

Home | Current Version | Previous Version | Text Only | Print | Product List | Glossary On
Versions: 1 2 3 4 5 6 7 8 9 10 11 12 13 14 15 16 17 18 19 20 21 22 23 24 25 26 27
000
ASUS41 KAKQ 271815
RWRAKQ

REGIONAL WEATHER ROUNDUP
NATIONAL WEATHER SERVICE WAKEFIELD VA
200 PM EDT FRI MAY 27 2016

Note: "fair" indicates few or no clouds below 12,000 feet with no
significant weather and/or obstructions to visibility. * = Denotes
station may not report precipitation (e.g., rain,snow,etc.),
thunder or fog.

VAZ042-051-052>054-056-271900-
NORTHERN VIRGINIA

CITY           SKY/WX    TMP DP  RH WIND       PRES   REMARKS
WASH NATIONAL  NOT AVBL
DULLES         PTSUNNY   87  66  49 S7        30.06F
FORT BELVOIR   FAIR      87  65  47 SW7       30.06F
QUANTICO       FAIR      85  69  58 S3        30.07F
FREDERICKSBRG* FAIR      90  68  48 S5        30.06S
STAFFORD*      FAIR      87  66  50 S10       30.10F
WARRENTON      FAIR      90  62  39 S6        30.06F
CULPEPER*      FAIR      88  67  49 S8        30.07F
MANASSAS*      MOSUNNY   88  68  51 S7        30.06F
LEESBURG*      FAIR      90  70  51 SE3       30.07F HX  95
WINCHESTER     FAIR      88  63  42 SE5       30.07F
FRONT ROYAL*   FAIR      86  68  54 E5        30.06F
LURAY*         FAIR      86  66  51 CALM      30.07F
$$

VAZ048-049-060>072-079>083-271900-
CENTRAL AND SOUTH CENTRAL VIRGINIA

CITY           SKY/WX    TMP DP  RH WIND       PRES   REMARKS
RICHMOND       FAIR      85  66  53 S9        30.08F
CHESTERFIELD*  FAIR      86  63  45 SW7G16    30.10F
PETERSBURG*    FAIR      87  66  48 S7        30.10F
HANOVER        FAIR      87  66  49 VRB7      30.09F
TAPPAHANNOCK*  FAIR      88  65  47 S6        30.09F
QUINTON*       FAIR      85  67  54 S8        30.09F
CHARLOTTSVILLE FAIR      86  66  51 SE8       30.08F
GORDONSVILLE*  FAIR      86  69  57 S5        30.07F
ORANGE*        FAIR      88  68  51 SW8       30.09F
LOUISA*        FAIR      90  72  55 CALM      30.07F HX  96
BUMPASS*       FAIR      86  69  58 S6        30.08F
FARMVILLE*     FAIR      87  66  49 S9G17     30.08S
CREWE*         FAIR      85  69  59 S8        30.10F
FORT PICKETT*  NOT AVBL
CHASE CITY*    FAIR      86  64  47 S7        30.11F
CLARKSVILLE*   FAIR      82  64  54 S8        30.11F
SOUTH HILL*    FAIR      83  67  56 S8        30.17F
LAWRENCEVILLE* FAIR      85  68  56 SW8       30.11F
EMPORIA*       FAIR      82  64  54 S7        30.13F
$$

VAZ088>098-271900-
SOUTHEAST VIRGINIA

CITY           SKY/WX    TMP DP  RH WIND       PRES   REMARKS
NORFOLK        FAIR      86  63  45 S12       30.12F
VIRGINIA BEACH FAIR      88  61  40 S13       30.12F
NORFOLK NAVAL  FAIR      86  63  45 S6        30.13F
WEST POINT*    FAIR      86  65  50 S8        30.11F
SALUDA*        FAIR      85  68  55 S9G17     30.09F
NEWPORT NEWS   FAIR      84  66  54 S12       30.11F
LANGLEY AFB    FAIR      85  66  52 S14       30.11F
FORT EUSTIS    FAIR      85  72  65 S7        30.09F
WILLIAMSBURG*  FAIR      90  68  48 S9        30.11F
HR EXEC AP*    FAIR      88  64  45 SW14      30.14F
FRANKLIN*      FAIR      85  65  51 S7        30.12F
US460-WAKEFLD  FAIR      85  65  51 S7        30.10F
$$

VAZ020-022-025-037-045-271900-
WEST CENTRAL AND SOUTHWEST VIRGINIA

CITY           SKY/WX    TMP DP  RH WIND       PRES   REMARKS
STAUNTON*      FAIR      84  64  50 S8        30.11F
WAYNESBORO*    MOCLDY    81  62  53 S5        30.12S
HOT SPRINGS VA PTSUNNY   73  58  59 SE5       30.23S
LYNCHBURG      FAIR      84  65  52 S6        30.12S
DANVILLE       FAIR      85  67  54 VRB6      30.11F
SOUTH BOSTON*  FAIR      85  67  55 S6        30.10F
MARTINSVILLE   FAIR      83  65  54 S6        30.14F
ROANOKE        FAIR      84  56  38 SE9       30.12F
BLACKSBURG     FAIR      83  60  46 NW3       30.18F
DUBLIN*        FAIR      85  59  41 SE3       30.17S
MARION*        CLOUDY    71  63  76 W7        30.21R
HILLSVILLE*    CLOUDY    75  65  72 CALM      30.18F
RICHLANDS*     MOCLDY    78  69  73 SW3       30.18F
WISE*          CLOUDY    77  57  50 CALM      30.18F
ABINGDON*      FAIR      85  61  45 SW5       30.14F
$$

MDZ021>025-VAZ099-100-271900-
SOUTHERN MARYLAND AND THE DELMARVA PENINSULA

CITY           SKY/WX    TMP DP  RH WIND       PRES   REMARKS
PATUXENT RIVER MOSUNNY   78  67  68 SE12      30.07F
BAY BRIDGE APT SUNNY     84  68  58 S9        30.07S
LEONARDTOWN    SUNNY     84  66  54 SW7       30.09F
DOVER          SUNNY     88  72  57 SW9       30.06S HX  95
GEORGETOWN     SUNNY     88  64  44 SW15      30.08F
EASTON         SUNNY     86  72  62 SW5       30.11F
CAMBRIDGE      SUNNY     81  68  65 S9        30.09S
SALISBURY      SUNNY     85  67  54 SW12      30.09F
OCEAN CITY     SUNNY     72  64  76 SW12G18   30.12S
WALLOPS ISLAND PTSUNNY   77  66  68 S18       30.13S
ACCOMACK*      FAIR      82  61  47 S15       30.12S
$$

NCZ012>017-030>032-271900-
NORTH CENTRAL AND EASTERN NORTH CAROLINA

CITY           SKY/WX    TMP DP  RH WIND       PRES   REMARKS
ROANOKE RAPIDS FAIR      84  64  51 SW7       30.12F
RALEIGH        MOSUNNY   85  65  51 S8        30.13F
ELIZABETH CITY SUNNY     84  60  44 SE8       30.15F
AHOSKIE*       SUNNY     84  63  49 S7        30.13F
EDENTON*       SUNNY     85  64  49 S6        30.14F
CURRITUCK*     SUNNY     84  57  39 S3        30.16S
KILL DEVIL HLS SUNNY     86  56  36 S8        30.16S
MANTEO         NOT AVBL
CAPE HATTERAS  SUNNY     82  60  47 VRB5      30.17F
TARBORO*       CLOUDY    85  65  49 SE5       30.14F
GOLDSBORO      MOSUNNY   86  62  43 VRB1      30.11F
WASHINGTON     SUNNY     83  60  45 S7        30.14F
GREENVILLE     MOSUNNY   86  61  42 SE5       30.15F
NEW BERN       SUNNY     83  62  49 E10       30.15F
WILMINGTON     SUNNY     79  55  43 E9        30.15F
$$

VAZ048-271900-
ELSEWHERE

CITY           SKY/WX    TMP DP  RH WIND       PRES   REMARKS
HARRISBURG PA  PTSUNNY   87  66  49 S3        30.03F
BALTIMORE      PTSUNNY   89  66  46 SW6       30.05F
ANNAPOLIS      SUNNY     78  69  73 SE14      30.07S
ANDREWS AFB    FAIR      87  67  50 S9        30.06F
PHILADELPHIA   MOSUNNY   88  65  46 SW12      30.05F
HENDERSON NC   SUNNY     80  62  53 SW6       30.12F
GREENSBORO     MOSUNNY   84  62  47 SW8       30.12F
ROCKY MOUNT    MOSUNNY   86  64  47 VRB3      30.12F
$$

VAZ100-271900-
MARINE

STATION/POSITION TIME  TEMP    WIND        PRES    WAVE   SWELL
                       AIR SEA DIR/SP/G            HT/PER HT/PER
                 (UTC) (F)     (DEG/KT/KT) (MB)    (FT/S) (FT/S)
BRANDYWINE LGT   1700   65     160/ 15/ 17 1018.8F
CAPE MAY NJ      1700   72 68  150/ 11/ 14 1018.9F
LEWES DE         1700   86 63  210/  9/ 14 1018.7F
15NM E FENWICK I 1750   64 61              1019.7R   3/ 4
OCEAN-CITY-INLET 1700   63 59  210/ 14/ 17 1020.4F
WACHAPREAGUE VA  1700   75 75  190/ 14/ 17 1019.7F
THOMAS POINT MD  1800   71 67  180/  9/ 10 1019.6F
GOOSES REEF MD   1800   72 68  170/ 14/ 16 1019.4F   1/ 3
COVE POINT MD    1700   69     180/ 12/ 14 1019.6F
SOLOMONS ISLAND  1700   74 67   70/  7/  8   N/A
BISHOPS HEAD MD  1700   72 77  150/ 12/ 13 1019.5F
PINEY POINT MD   1700          140/  7/  8   N/A
POTOMAC MD       1800   74 73  160/ 12/ 14 1017.8F   1/ 2
CAMBRIDGE MD     1700   82 66  190/  5/  9 1018.0F
LEWISETTA VA     1700   75 67   80/  5/  7 1018.5F
RAPPAHANNOCK LGT 1700          170/ 14/ 15 1020.4F
STINGRAY PT      1800   74 69  170/ 12/ 14 1019.6F   1/ 2
YORK RVR RNG VA  1700   77     210/ 10/ 11 1019.3F
YORKTOWN VA      1700   81 66  230/ 10/ 13 1019.5F
JAMESTOWN VA     1800   82 74  180/  8/ 12   N/A
DOMINION TERM VA 1700   76     220/  5/  6 1020.2F
KIPTOPEKE VA     1700      70  170/ 15/ 16   N/A
CHES BAY BRIDGE  1700   80 68  170/  8/ 10 1020.2F
CAPE HENRY VA    1700   77     140/ 13/ 16   N/A
CHESAPEAKE LGHT  1700   70     170/ 20/ 21 1021.3F
WILLOUBY STN VA  1700   81     200/ 10/ 13 1021.2F
CAPE HENRY BUOY  1712      68                N/A     2/ 8
1ST LANDING BUOY 1800   72 69  140/ 16/ 17 1019.8F   2/ 3
CAPE CHARLES BUO 1726      66                N/A     2/ 3   2/ 8
OFFSHORE WE BUOY 1721      65                N/A     2/ 8   2/ 8
64NM E OF VA BCH 1750   67 60  180/  6/  6 1021.7F   2/ 8   2/ 8
DUCK PIER NC     1700   70 60  140/ 10/ 12 1021.0F
44100 DUCK FRF   1724      68                N/A     2/ 8
44056 DUCK FRF   1711      65                N/A     2/ 8
OREGON INLET NC  1700   76 75  190/  7/  8 1022.0F
HATTERAS NC      1700   77 72  130/  5/  6 1021.7F
DIAMOND SHLS NC  1750   77 81  120/ 12/ 14 1021.6F   2/ 8   2/ 8
CAPE LOOKOUC1F1C2F2C3F3C4F4C5F5C6F6C7F7C8M1C9!



USA.gov is the U.S. government's official web portal to all federal, state and local government web resources and services.